Time,TemperatureF,DewpointF,PressureIn,WindDirection,WindDirectionDegrees,WindSpeedMPH,WindSpeedGustMPH,Humidity,HourlyPrecipIn,Conditions,Clouds,dailyrainin,SoftwareType,DateUTC
2013-07-04 00:00:00,72.6,71.7,29.86,SSE,155,0.0,0.0,97,0.00,CLR,SCT,0.00,WeatherDisplay:10.37,2013-07-04 04:00:00,
2013-07-04 00:01:00,72.6,71.7,29.86,SSE,155,0.0,0.0,97,0.00,CLR,SCT,0.00,WeatherDisplay:10.37,2013-07-04 04:01:00,
2013-07-04 00:06:00,72.4,71.5,29.86,SSE,155,0.0,0.0,97,0.00,CLR,SCT,0.00,WeatherDisplay:10.37,2013-07-04 04:06:00,
2013-07-04 00:11:00,72.4,71.5,29.86,SSE,155,0.0,1.1,97,0.00,CLR,SCT,0.00,WeatherDisplay:10.37,2013-07-04 04:11:00,
2013-07-04 00:16:00,72.3,71.4,29.86,SSE,155,0.0,0.0,97,0.00,CLR,SCT,0.00,WeatherDisplay:10.37,2013-07-04 04:16:00,
2013-07-04 00:21:00,72.3,71.4,29.86,SSE,155,0.0,0.0,97,0.00,CLR,SCT,0.00,WeatherDisplay:10.37,2013-07-04 04:21:00,
2013-07-04 00:26:00,72.2,71.3,29.86,SSE,155,0.1,1.0,97,0.00,CLR,SCT,0.00,WeatherDisplay:10.37,2013-07-04 04:26:00,
2013-07-04 00:31:00,72.2,71.3,29.86,SSE,155,0.0,1.1,97,0.00,CLR,SCT,0.00,WeatherDisplay:10.37,2013-07-04 04:31:00,
2013-07-04 00:36:00,72.2,71.3,29.86,SSE,155,0.0,0.0,97,0.00,CLR,SCT,0.00,WeatherDisplay:10.37,2013-07-04 04:36:00,
2013-07-04 00:41:00,72.2,71.3,29.86,SSE,155,0.0,0.0,97,0.00,CLR,SCT,0.00,WeatherDisplay:10.37,2013-07-04 04:41:00,
2013-07-04 00:46:00,72.2,71.3,29.86,SSE,155,0.0,1.1,97,0.00,CLR,SCT,0.00,WeatherDisplay:10.37,2013-07-04 04:46:00,
2013-07-04 00:51:00,72.2,71.3,29.86,SSE,155,0.0,1.1,97,0.00,CLR,SCT,0.00,WeatherDisplay:10.37,2013-07-04 04:51:00,
2013-07-04 00:56:00,72.1,71.5,29.86,SSE,155,0.1,0.0,98,0.00,CLR,SCT,0.00,WeatherDisplay:10.37,2013-07-04 04:56:00,
2013-07-04 01:01:00,72.0,71.4,29.86,SE,142,0.1,1.1,98,0.00,CLR,SCT,0.00,WeatherDisplay:10.37,2013-07-04 05:01:00,
2013-07-04 01:06:00,72.0,71.4,29.86,SE,142,0.0,0.0,98,0.00,CLR,SCT,0.00,WeatherDisplay:10.37,2013-07-04 05:06:00,
2013-07-04 01:11:00,71.9,71.3,29.86,SE,142,0.2,1.1,98,0.00,CLR,SCT,0.00,WeatherDisplay:10.37,2013-07-04 05:11:00,
2013-07-04 01:16:00,71.8,71.2,29.86,SE,142,0.0,1.1,98,0.00,CLR,SCT,0.00,WeatherDisplay:10.37,2013-07-04 05:16:00,
2013-07-04 01:21:00,71.9,71.3,29.86,SE,142,0.0,0.0,98,0.00,CLR,SCT,0.00,WeatherDisplay:10.37,2013-07-04 05:21:00,
2013-07-04 01:26:00,71.9,71.3,29.85,SE,142,0.0,0.0,98,0.00,CLR,SCT,0.00,WeatherDisplay:10.37,2013-07-04 05:26:00,
2013-07-04 01:31:00,71.8,71.2,29.85,SE,142,0.0,0.0,98,0.00,CLR,SCT,0.00,WeatherDisplay:10.37,2013-07-04 05:31:00,
2013-07-04 01:36:00,71.8,71.2,29.85,SE,142,0.0,0.0,98,0.00,CLR,SCT,0.00,WeatherDisplay:10.37,2013-07-04 05:36:00,
2013-07-04 01:41:00,72.0,71.4,29.85,SE,142,0.0,0.0,98,0.00,CLR,SCT,0.00,WeatherDisplay:10.37,2013-07-04 05:41:00,
2013-07-04 01:46:00,72.1,71.5,29.86,SE,142,0.0,0.0,98,0.00,CLR,SCT,0.00,WeatherDisplay:10.37,2013-07-04 05:46:00,
2013-07-04 01:51:00,72.2,71.6,29.85,SE,142,0.0,1.0,98,0.00,CLR,SCT,0.00,WeatherDisplay:10.37,2013-07-04 05:51:00,
2013-07-04 01:56:00,72.2,71.6,29.85,SE,142,0.0,1.1,98,0.00,CLR,SCT,0.00,WeatherDisplay:10.37,2013-07-04 05:56:00,
2013-07-04 02:01:00,72.4,71.8,29.85,SE,142,0.0,0.0,98,0.00,CLR,SCT,0.00,WeatherDisplay:10.37,2013-07-04 06:01:00,
2013-07-04 02:06:00,72.5,71.9,29.86,SE,142,0.0,0.0,98,0.00,CLR,SCT,0.00,WeatherDisplay:10.37,2013-07-04 06:06:00,
2013-07-04 02:11:00,72.5,71.9,29.85,SE,142,0.0,0.0,98,0.00,CLR,SCT,0.00,WeatherDisplay:10.37,2013-07-04 06:11:00,
2013-07-04 02:16:00,72.5,71.9,29.85,SE,142,0.0,0.0,98,0.00,CLR,SCT,0.00,WeatherDisplay:10.37,2013-07-04 06:16:00,
2013-07-04 02:21:00,72.5,71.9,29.85,SE,139,0.4,0.0,98,0.00,CLR,SCT,0.00,WeatherDisplay:10.37,2013-07-04 06:21:00,
2013-07-04 02:26:00,72.5,71.9,29.85,SE,139,0.0,0.0,98,0.00,CLR,SCT,0.00,WeatherDisplay:10.37,2013-07-04 06:26:00,
2013-07-04 02:31:00,72.3,71.7,29.85,SE,139,0.0,0.0,98,0.00,CLR,SCT,0.00,WeatherDisplay:10.37,2013-07-04 06:31:00,
2013-07-04 02:36:00,72.2,71.6,29.85,SE,139,0.0,0.0,98,0.00,CLR,SCT,0.00,WeatherDisplay:10.37,2013-07-04 06:36:00,
2013-07-04 02:41:00,72.3,71.7,29.85,SE,139,0.4,1.1,98,0.00,CLR,SCT,0.00,WeatherDisplay:10.37,2013-07-04 06:41:00,
2013-07-04 02:46:00,72.4,71.8,29.85,SSE,164,0.0,1.1,98,0.00,CLR,SCT,0.00,WeatherDisplay:10.37,2013-07-04 06:46:00,
2013-07-04 02:51:00,72.4,72.1,29.85,SSE,164,0.5,2.3,99,0.00,CLR,SCT,0.00,WeatherDisplay:10.37,2013-07-04 06:51:00,
2013-07-04 02:56:00,72.5,72.2,29.85,SSE,154,0.0,0.0,99,0.00,CLR,SCT,0.00,WeatherDisplay:10.37,2013-07-04 06:56:00,
2013-07-04 03:01:00,72.6,72.3,29.85,SE,143,0.3,1.0,99,0.00,CLR,SCT,0.00,WeatherDisplay:10.37,2013-07-04 07:01:00,
2013-07-04 03:06:00,72.6,72.3,29.85,SE,143,0.0,0.0,99,0.00,CLR,SCT,0.00,WeatherDisplay:10.37,2013-07-04 07:06:00,
2013-07-04 03:11:00,72.6,72.3,29.85,SE,143,0.0,0.0,99,0.00,CLR,SCT,0.00,WeatherDisplay:10.37,2013-07-04 07:11:00,
2013-07-04 03:16:00,72.6,72.3,29.85,SE,143,0.0,0.0,99,0.00,CLR,SCT,0.00,WeatherDisplay:10.37,2013-07-04 07:16:00,
2013-07-04 03:21:00,72.6,72.3,29.85,SE,143,0.0,0.0,99,0.00,CLR,SCT,0.00,WeatherDisplay:10.37,2013-07-04 07:21:00,
2013-07-04 03:26:00,72.6,72.3,29.85,SE,143,0.0,0.0,99,0.00,CLR,SCT,0.00,WeatherDisplay:10.37,2013-07-04 07:26:00,
2013-07-04 03:31:00,72.6,72.3,29.85,SE,143,0.0,0.0,99,0.00,CLR,SCT,0.00,WeatherDisplay:10.37,2013-07-04 07:31:00,
2013-07-04 03:36:00,72.6,72.3,29.85,SE,143,0.0,0.0,99,0.00,CLR,SCT,0.00,WeatherDisplay:10.37,2013-07-04 07:36:00,
2013-07-04 03:41:00,72.6,72.3,29.85,SE,143,0.0,0.0,99,0.00,CLR,SCT,0.00,WeatherDisplay:10.37,2013-07-04 07:41:00,
2013-07-04 03:46:00,72.6,72.3,29.85,SE,126,0.0,0.0,99,0.00,CLR,SCT,0.00,WeatherDisplay:10.37,2013-07-04 07:46:00,
2013-07-04 03:51:00,72.6,72.3,29.85,SE,126,0.0,0.0,99,0.00,CLR,SCT,0.00,WeatherDisplay:10.37,2013-07-04 07:51:00,
2013-07-04 03:56:00,72.6,72.3,29.85,SE,126,0.0,0.0,99,0.00,CLR,SCT,0.00,WeatherDisplay:10.37,2013-07-04 07:56:00,
2013-07-04 04:01:00,72.6,72.3,29.85,SE,126,0.0,0.0,99,0.00,CLR,SCT,0.00,WeatherDisplay:10.37,2013-07-04 08:01:00,
2013-07-04 04:06:00,72.6,72.0,29.85,SE,126,0.0,0.0,98,0.00,CLR,SCT,0.00,WeatherDisplay:10.37,2013-07-04 08:06:00,
2013-07-04 04:11:00,72.6,72.3,29.85,NE,51,0.0,1.1,99,0.00,CLR,SCT,0.00,WeatherDisplay:10.37,2013-07-04 08:11:00,
2013-07-04 04:16:00,72.6,72.0,29.85,East,93,0.0,0.0,98,0.00,CLR,SCT,0.00,WeatherDisplay:10.37,2013-07-04 08:16:00,
2013-07-04 04:21:00,72.6,72.0,29.85,East,93,0.1,1.1,98,0.00,CLR,SCT,0.00,WeatherDisplay:10.37,2013-07-04 08:21:00,
2013-07-04 04:26:00,72.6,72.0,29.85,East,93,0.0,0.0,98,0.00,CLR,SCT,0.00,WeatherDisplay:10.37,2013-07-04 08:26:00,
2013-07-04 04:31:00,72.7,72.1,29.85,East,92,0.1,1.1,98,0.00,CLR,SCT,0.00,WeatherDisplay:10.37,2013-07-04 08:31:00,
2013-07-04 04:36:00,72.7,72.1,29.85,East,92,0.0,0.0,98,0.00,CLR,SCT,0.00,WeatherDisplay:10.37,2013-07-04 08:36:00,
2013-07-04 04:41:00,72.6,72.0,29.85,East,92,0.0,0.0,98,0.00,CLR,SCT,0.00,WeatherDisplay:10.37,2013-07-04 08:41:00,
2013-07-04 04:46:00,72.6,72.0,29.85,East,92,0.0,1.1,98,0.00,CLR,SCT,0.00,WeatherDisplay:10.37,2013-07-04 08:46:00,
2013-07-04 04:51:00,72.5,71.9,29.85,East,92,0.0,0.0,98,0.00,CLR,SCT,0.00,WeatherDisplay:10.37,2013-07-04 08:51:00,
2013-07-04 04:56:00,72.5,71.9,29.85,East,92,0.0,0.0,98,0.00,CLR,SCT,0.00,WeatherDisplay:10.37,2013-07-04 08:56:00,
2013-07-04 05:01:00,72.4,71.8,29.85,East,92,0.0,1.1,98,0.00,CLR,SCT,0.00,WeatherDisplay:10.37,2013-07-04 09:01:00,
2013-07-04 05:06:00,72.4,71.8,29.86,East,92,0.0,0.0,98,0.00,CLR,SCT,0.00,WeatherDisplay:10.37,2013-07-04 09:06:00,
2013-07-04 05:11:00,72.5,71.9,29.86,East,92,0.0,0.0,98,0.00,CLR,SCT,0.00,WeatherDisplay:10.37,2013-07-04 09:11:00,
2013-07-04 05:16:00,72.5,71.9,29.86,East,92,0.0,0.0,98,0.00,CLR,SCT,0.00,WeatherDisplay:10.37,2013-07-04 09:16:00,
2013-07-04 05:21:00,72.5,71.9,29.86,East,92,0.0,0.0,98,0.00,CLR,SCT,0.00,WeatherDisplay:10.37,2013-07-04 09:21:00,
2013-07-04 05:26:00,72.5,71.9,29.86,East,93,0.0,0.0,98,0.00,CLR,SCT,0.00,WeatherDisplay:10.37,2013-07-04 09:26:00,
2013-07-04 05:31:00,72.5,71.9,29.86,East,93,0.0,1.1,98,0.00,CLR,SCT,0.00,WeatherDisplay:10.37,2013-07-04 09:31:00,
2013-07-04 05:36:00,72.5,71.9,29.86,East,93,0.0,0.0,98,0.00,CLR,SCT,0.00,WeatherDisplay:10.37,2013-07-04 09:36:00,
2013-07-04 05:41:00,72.5,71.9,29.86,East,93,0.0,0.0,98,0.00,CLR,SCT,0.00,WeatherDisplay:10.37,2013-07-04 09:41:00,
2013-07-04 05:46:00,72.5,71.9,29.86,East,93,0.0,0.0,98,0.00,CLR,SCT,0.00,WeatherDisplay:10.37,2013-07-04 09:46:00,
2013-07-04 05:51:00,72.6,72.0,29.86,East,93,0.0,0.0,98,0.00,CLR,SCT,0.00,WeatherDisplay:10.37,2013-07-04 09:51:00,
2013-07-04 05:56:00,72.6,72.0,29.86,East,93,0.0,0.0,98,0.00,CLR,SCT,0.00,WeatherDisplay:10.37,2013-07-04 09:56:00,
2013-07-04 06:01:00,72.6,72.0,29.86,East,93,0.0,0.0,98,0.00,CLR,SCT,0.00,WeatherDisplay:10.37,2013-07-04 10:01:00,
2013-07-04 06:06:00,72.6,72.0,29.86,East,94,0.0,0.0,98,0.00,CLR,SCT,0.00,WeatherDisplay:10.37,2013-07-04 10:06:00,
2013-07-04 06:11:00,72.6,72.0,29.87,East,94,0.0,0.0,98,0.00,CLR,SCT,0.00,WeatherDisplay:10.37,2013-07-04 10:11:00,
2013-07-04 06:16:00,72.6,72.0,29.87,East,94,0.0,0.0,98,0.00,CLR,SCT,0.00,WeatherDisplay:10.37,2013-07-04 10:16:00,
2013-07-04 06:21:00,72.7,72.1,29.87,East,94,0.0,0.0,98,0.00,CLR,SCT,0.00,WeatherDisplay:10.37,2013-07-04 10:21:00,
2013-07-04 06:26:00,72.7,72.1,29.87,East,94,0.0,0.0,98,0.00,CLR,SCT,0.00,WeatherDisplay:10.37,2013-07-04 10:26:00,
2013-07-04 06:31:00,72.7,72.1,29.87,East,94,0.0,0.0,98,0.00,CLR,SCT,0.00,WeatherDisplay:10.37,2013-07-04 10:31:00,
2013-07-04 06:36:00,72.8,72.2,29.87,East,94,0.0,0.0,98,0.00,CLR,SCT,0.00,WeatherDisplay:10.37,2013-07-04 10:36:00,
2013-07-04 06:41:00,72.8,71.9,29.87,West,279,0.0,0.0,97,0.00,CLR,SCT,0.00,WeatherDisplay:10.37,2013-07-04 10:41:00,
2013-07-04 06:46:00,72.8,71.9,29.87,West,279,0.0,0.0,97,0.00,CLR,SCT,0.00,WeatherDisplay:10.37,2013-07-04 10:46:00,
2013-07-04 06:51:00,72.9,72.0,29.87,West,279,0.0,0.0,97,0.00,CLR,SCT,0.00,WeatherDisplay:10.37,2013-07-04 10:51:00,
2013-07-04 06:56:00,73.0,72.1,29.88,West,279,0.0,0.0,97,0.00,CLR,SCT,0.00,WeatherDisplay:10.37,2013-07-04 10:56:00,
2013-07-04 07:01:00,73.0,72.1,29.88,West,279,0.0,0.0,97,0.00,CLR,SCT,0.00,WeatherDisplay:10.37,2013-07-04 11:01:00,
2013-07-04 07:06:00,73.1,72.2,29.88,West,279,0.0,0.0,97,0.00,CLR,SCT,0.00,WeatherDisplay:10.37,2013-07-04 11:06:00,
2013-07-04 07:11:00,73.2,72.3,29.88,West,279,0.0,0.0,97,0.00,CLR,SCT,0.00,WeatherDisplay:10.37,2013-07-04 11:11:00,
2013-07-04 07:16:00,73.3,72.4,29.88,West,279,0.0,0.0,97,0.00,CLR,SCT,0.00,WeatherDisplay:10.37,2013-07-04 11:16:00,
2013-07-04 07:21:00,73.5,72.6,29.88,West,279,0.0,0.0,97,0.00,CLR,SCT,0.00,WeatherDisplay:10.37,2013-07-04 11:21:00,
2013-07-04 07:26:00,73.7,72.8,29.88,West,279,0.0,0.0,97,0.00,CLR,SCT,0.00,WeatherDisplay:10.37,2013-07-04 11:26:00,
2013-07-04 07:31:00,73.9,72.7,29.88,NE,42,0.0,0.0,96,0.00,CLR,SCT,0.00,WeatherDisplay:10.37,2013-07-04 11:31:00,
2013-07-04 07:36:00,74.1,72.6,29.88,NE,42,0.0,1.1,95,0.00,CLR,SCT,0.00,WeatherDisplay:10.37,2013-07-04 11:36:00,
2013-07-04 07:41:00,74.5,73.0,29.88,NE,42,0.0,0.0,95,0.00,CLR,SCT,0.00,WeatherDisplay:10.37,2013-07-04 11:41:00,
2013-07-04 07:46:00,74.9,73.1,29.88,NE,42,0.0,0.0,94,0.00,CLR,SCT,0.00,WeatherDisplay:10.37,2013-07-04 11:46:00,
2013-07-04 07:51:00,75.2,73.0,29.88,NE,42,0.0,0.0,93,0.00,CLR,SCT,0.00,WeatherDisplay:10.37,2013-07-04 11:51:00,
2013-07-04 07:56:00,75.3,72.8,29.88,NE,42,0.0,0.0,92,0.00,CLR,SCT,0.00,WeatherDisplay:10.37,2013-07-04 11:56:00,
2013-07-04 08:01:00,75.5,73.0,29.89,NE,42,0.0,0.0,92,0.00,CLR,SCT,0.00,WeatherDisplay:10.37,2013-07-04 12:01:00,
2013-07-04 08:06:00,75.6,73.1,29.89,NE,42,0.0,0.0,92,0.00,CLR,SCT,0.00,WeatherDisplay:10.37,2013-07-04 12:06:00,
2013-07-04 08:11:00,75.9,73.7,29.89,NE,42,0.0,0.0,93,0.00,CLR,SCT,0.00,WeatherDisplay:10.37,2013-07-04 12:11:00,
2013-07-04 08:16:00,75.9,73.4,29.89,NE,42,0.0,0.0,92,0.00,CLR,SCT,0.00,WeatherDisplay:10.37,2013-07-04 12:16:00,
2013-07-04 08:21:00,75.9,73.4,29.88,NE,42,0.0,0.0,92,0.00,CLR,SCT,0.00,WeatherDisplay:10.37,2013-07-04 12:21:00,
2013-07-04 08:26:00,76.1,73.6,29.89,NE,42,0.0,0.0,92,0.00,CLR,SCT,0.00,WeatherDisplay:10.37,2013-07-04 12:26:00,
2013-07-04 08:31:00,76.4,73.9,29.88,NE,42,0.0,0.0,92,0.00,CLR,SCT,0.00,WeatherDisplay:10.37,2013-07-04 12:31:00,
2013-07-04 08:36:00,76.6,73.4,29.88,NE,42,0.0,0.0,90,0.00,CLR,SCT,0.00,WeatherDisplay:10.37,2013-07-04 12:36:00,
2013-07-04 08:41:00,76.9,74.1,29.88,NE,42,0.0,0.0,91,0.00,CLR,SCT,0.00,WeatherDisplay:10.37,2013-07-04 12:41:00,
2013-07-04 08:46:00,76.9,73.7,29.89,NE,42,0.0,0.0,90,0.00,CLR,SCT,0.00,WeatherDisplay:10.37,2013-07-04 12:46:00,
2013-07-04 08:51:00,76.9,73.7,29.89,NE,42,0.0,0.0,90,0.00,CLR,SCT,0.00,WeatherDisplay:10.37,2013-07-04 12:51:00,
2013-07-04 08:56:00,76.9,74.1,29.89,NE,42,0.0,0.0,91,0.00,CLR,SCT,0.00,WeatherDisplay:10.37,2013-07-04 12:56:00,
2013-07-04 09:01:00,77.1,73.9,29.89,NE,42,0.0,0.0,90,0.00,CLR,SCT,0.00,WeatherDisplay:10.37,2013-07-04 13:01:00,
2013-07-04 09:06:00,77.4,73.6,29.88,NE,40,0.0,0.0,88,0.00,CLR,SCT,0.00,WeatherDisplay:10.37,2013-07-04 13:06:00,
2013-07-04 09:11:00,77.7,74.2,29.89,NE,40,0.0,0.0,89,0.00,CLR,SCT,0.00,WeatherDisplay:10.37,2013-07-04 13:11:00,
2013-07-04 09:16:00,77.8,74.3,29.89,NE,42,0.0,0.0,89,0.00,CLR,SCT,0.00,WeatherDisplay:10.37,2013-07-04 13:16:00,
2013-07-04 09:21:00,77.8,74.0,29.89,NE,42,0.0,0.0,88,0.00,CLR,SCT,0.00,WeatherDisplay:10.37,2013-07-04 13:21:00,
2013-07-04 09:26:00,77.8,74.3,29.88,SSE,152,0.3,0.0,89,0.00,CLR,SCT,0.00,WeatherDisplay:10.37,2013-07-04 13:26:00,
2013-07-04 09:31:00,77.9,74.1,29.88,ESE,105,0.0,0.0,88,0.00,CLR,SCT,0.00,WeatherDisplay:10.37,2013-07-04 13:31:00,
2013-07-04 09:36:00,78.1,73.9,29.88,East,98,0.0,0.0,87,0.00,CLR,SCT,0.00,WeatherDisplay:10.37,2013-07-04 13:36:00,
2013-07-04 09:41:00,78.3,73.8,29.88,East,98,0.0,0.0,86,0.00,CLR,SCT,0.00,WeatherDisplay:10.37,2013-07-04 13:41:00,
2013-07-04 09:46:00,78.4,73.9,29.88,SE,132,0.1,1.1,86,0.00,CLR,SCT,0.00,WeatherDisplay:10.37,2013-07-04 13:46:00,
2013-07-04 09:51:00,78.6,74.1,29.88,SE,136,0.0,0.0,86,0.00,CLR,SCT,0.00,WeatherDisplay:10.37,2013-07-04 13:51:00,
2013-07-04 09:56:00,78.5,73.6,29.88,SE,135,0.0,0.0,85,0.00,CLR,SCT,0.00,WeatherDisplay:10.37,2013-07-04 13:56:00,
2013-07-04 10:01:00,78.5,74.0,29.88,ENE,69,0.0,0.0,86,0.00,CLR,SCT,0.00,WeatherDisplay:10.37,2013-07-04 14:01:00,
2013-07-04 10:06:00,78.5,74.0,29.88,ENE,69,0.0,0.0,86,0.00,CLR,SCT,0.00,WeatherDisplay:10.37,2013-07-04 14:06:00,
2013-07-04 10:11:00,78.7,73.8,29.88,NE,46,0.0,0.0,85,0.00,CLR,SCT,0.00,WeatherDisplay:10.37,2013-07-04 14:11:00,
2013-07-04 10:16:00,79.3,74.0,29.88,NE,46,0.0,0.0,84,0.00,CLR,SCT,0.00,WeatherDisplay:10.37,2013-07-04 14:16:00,
2013-07-04 10:21:00,79.7,74.1,29.88,SE,127,0.0,0.0,83,0.00,CLR,SCT,0.00,WeatherDisplay:10.37,2013-07-04 14:21:00,
2013-07-04 10:26:00,80.3,74.3,29.88,North,5,0.0,0.0,82,0.00,CLR,SCT,0.00,WeatherDisplay:10.37,2013-07-04 14:26:00,
2013-07-04 10:31:00,80.2,74.2,29.87,SSE,161,0.0,0.0,82,0.00,CLR,SCT,0.00,WeatherDisplay:10.37,2013-07-04 14:31:00,
2013-07-04 10:36:00,79.8,73.8,29.88,ESE,107,0.0,0.0,82,0.00,CLR,SCT,0.00,WeatherDisplay:10.37,2013-07-04 14:36:00,
2013-07-04 10:41:00,79.8,73.4,29.88,ESE,117,0.0,0.0,81,0.00,CLR,SCT,0.00,WeatherDisplay:10.37,2013-07-04 14:41:00,
2013-07-04 10:46:00,80.5,73.8,29.87,NE,34,0.6,0.0,80,0.00,CLR,SCT,0.00,WeatherDisplay:10.37,2013-07-04 14:46:00,
2013-07-04 10:51:00,80.9,74.9,29.87,WSW,244,0.0,0.0,82,0.00,CLR,SCT,0.00,WeatherDisplay:10.37,2013-07-04 14:51:00,
2013-07-04 10:56:00,80.9,74.1,29.87,West,268,0.0,0.0,80,0.00,CLR,SCT,0.00,WeatherDisplay:10.37,2013-07-04 14:56:00,
2013-07-04 11:01:00,81.3,74.9,29.87,SW,230,0.0,0.0,81,0.00,CLR,SCT,0.00,WeatherDisplay:10.37,2013-07-04 15:01:00,
2013-07-04 11:06:00,81.4,74.6,29.87,NW,317,0.0,0.0,80,0.00,CLR,SCT,0.00,WeatherDisplay:10.37,2013-07-04 15:06:00,
2013-07-04 11:11:00,81.1,75.1,29.87,NW,315,0.0,0.0,82,0.00,CLR,SCT,0.00,WeatherDisplay:10.37,2013-07-04 15:11:00,
2013-07-04 11:16:00,81.2,75.5,29.87,NNE,22,0.0,0.0,83,0.00,CLR,SCT,0.00,WeatherDisplay:10.37,2013-07-04 15:16:00,
2013-07-04 11:21:00,81.4,74.3,29.87,ENE,71,0.0,0.0,79,0.00,CLR,SCT,0.00,WeatherDisplay:10.37,2013-07-04 15:21:00,
2013-07-04 11:26:00,81.2,74.1,29.87,SSE,159,0.0,1.1,79,0.00,CLR,SCT,0.00,WeatherDisplay:10.37,2013-07-04 15:26:00,
2013-07-04 11:31:00,81.2,74.1,29.87,ENE,77,0.0,0.0,79,0.00,CLR,SCT,0.00,WeatherDisplay:10.37,2013-07-04 15:31:00,
2013-07-04 11:36:00,81.1,74.3,29.87,East,88,0.0,0.0,80,0.00,CLR,SCT,0.00,WeatherDisplay:10.37,2013-07-04 15:36:00,
2013-07-04 11:41:00,81.9,74.0,29.86,South,186,0.0,0.0,77,0.00,CLR,SCT,0.00,WeatherDisplay:10.37,2013-07-04 15:41:00,
2013-07-04 11:46:00,81.8,74.3,29.86,South,185,0.0,0.0,78,0.00,CLR,SCT,0.00,WeatherDisplay:10.37,2013-07-04 15:46:00,
2013-07-04 11:51:00,81.6,74.1,29.86,SSE,155,0.0,0.0,78,0.00,CLR,SCT,0.00,WeatherDisplay:10.37,2013-07-04 15:51:00,
2013-07-04 11:56:00,81.6,74.5,29.86,ESE,107,0.0,0.0,79,0.00,CLR,SCT,0.00,WeatherDisplay:10.37,2013-07-04 15:56:00,
2013-07-04 12:01:00,81.2,74.4,29.86,SSE,159,0.0,0.0,80,0.00,CLR,SCT,0.00,WeatherDisplay:10.37,2013-07-04 16:01:00,
2013-07-04 12:06:00,81.7,74.9,29.86,NW,319,0.0,0.0,80,0.00,CLR,SCT,0.00,WeatherDisplay:10.37,2013-07-04 16:06:00,
2013-07-04 12:11:00,82.0,75.2,29.85,North,360,0.0,0.0,80,0.00,CLR,SCT,0.00,WeatherDisplay:10.37,2013-07-04 16:11:00,
2013-07-04 12:16:00,82.9,76.5,29.86,WNW,300,0.0,0.0,81,0.00,CLR,SCT,0.00,WeatherDisplay:10.37,2013-07-04 16:16:00,
2013-07-04 12:21:00,82.6,74.3,29.86,WNW,303,0.0,0.0,76,0.00,CLR,SCT,0.00,WeatherDisplay:10.37,2013-07-04 16:21:00,
2013-07-04 12:26:00,82.1,74.6,29.85,NW,316,0.0,0.0,78,0.00,CLR,SCT,0.00,WeatherDisplay:10.37,2013-07-04 16:26:00,
2013-07-04 12:31:00,82.0,74.8,29.85,North,360,0.0,0.0,79,0.00,CLR,SCT,0.00,WeatherDisplay:10.37,2013-07-04 16:31:00,
2013-07-04 12:36:00,82.4,74.5,29.85,South,190,0.0,0.0,77,0.00,CLR,SCT,0.00,WeatherDisplay:10.37,2013-07-04 16:36:00,
2013-07-04 12:41:00,82.4,74.8,29.85,SE,125,0.0,0.0,78,0.00,CLR,SCT,0.00,WeatherDisplay:10.37,2013-07-04 16:41:00,
2013-07-04 12:46:00,82.4,74.8,29.85,SE,125,0.0,0.0,78,0.00,CLR,SCT,0.00,WeatherDisplay:10.37,2013-07-04 16:46:00,
2013-07-04 12:51:00,82.1,75.3,29.85,West,264,0.0,1.1,80,0.00,CLR,SCT,0.00,WeatherDisplay:10.37,2013-07-04 16:51:00,
2013-07-04 12:56:00,81.8,74.6,29.85,West,263,0.0,0.0,79,0.00,CLR,SCT,0.00,WeatherDisplay:10.37,2013-07-04 16:56:00,
2013-07-04 13:01:00,82.3,75.5,29.85,SW,219,0.0,0.0,80,0.00,CLR,SCT,0.00,WeatherDisplay:10.37,2013-07-04 17:01:00,
2013-07-04 13:06:00,83.0,75.0,29.85,SSW,208,0.0,0.0,77,0.00,CLR,SCT,0.00,WeatherDisplay:10.37,2013-07-04 17:06:00,
2013-07-04 13:11:00,82.7,74.8,29.84,SSW,205,0.0,0.0,77,0.00,CLR,SCT,0.00,WeatherDisplay:10.37,2013-07-04 17:11:00,
2013-07-04 13:16:00,82.5,75.3,29.84,ESE,102,0.0,0.0,79,0.00,CLR,SCT,0.00,WeatherDisplay:10.37,2013-07-04 17:16:00,
2013-07-04 13:21:00,83.2,75.6,29.84,South,170,0.0,0.0,78,0.00,CLR,SCT,0.00,WeatherDisplay:10.37,2013-07-04 17:21:00,
2013-07-04 13:26:00,83.4,75.4,29.84,South,172,0.0,0.0,77,0.00,CLR,SCT,0.00,WeatherDisplay:10.37,2013-07-04 17:26:00,
2013-07-04 13:31:00,83.1,74.7,29.84,ESE,103,0.0,0.0,76,0.00,CLR,SCT,0.00,WeatherDisplay:10.37,2013-07-04 17:31:00,
2013-07-04 13:36:00,82.7,74.8,29.84,ENE,74,0.0,0.0,77,0.00,CLR,SCT,0.00,WeatherDisplay:10.37,2013-07-04 17:36:00,
2013-07-04 13:41:00,82.0,74.8,29.84,SE,128,0.0,0.0,79,0.00,CLR,SCT,0.00,WeatherDisplay:10.37,2013-07-04 17:41:00,
2013-07-04 13:46:00,81.6,74.8,29.84,East,93,0.0,0.0,80,0.00,CLR,SCT,0.00,WeatherDisplay:10.37,2013-07-04 17:46:00,
2013-07-04 13:51:00,82.0,74.8,29.84,SSW,196,0.2,0.0,79,0.00,CLR,SCT,0.00,WeatherDisplay:10.37,2013-07-04 17:51:00,
2013-07-04 13:56:00,82.7,75.1,29.84,SSW,196,0.0,0.0,78,0.00,CLR,SCT,0.00,WeatherDisplay:10.37,2013-07-04 17:56:00,
2013-07-04 14:01:00,82.6,75.0,29.84,SE,146,0.0,0.0,78,0.00,CLR,SCT,0.00,WeatherDisplay:10.37,2013-07-04 18:01:00,
2013-07-04 14:06:00,82.9,75.3,29.84,SSW,199,0.0,0.0,78,0.00,CLR,SCT,0.00,WeatherDisplay:10.37,2013-07-04 18:06:00,
2013-07-04 14:11:00,83.1,75.1,29.83,NW,312,0.1,1.1,77,0.00,CLR,SCT,0.00,WeatherDisplay:10.37,2013-07-04 18:11:00,
2013-07-04 14:16:00,83.0,75.4,29.84,ENE,71,0.6,3.5,78,0.00,CLR,SCT,0.00,WeatherDisplay:10.37,2013-07-04 18:16:00,
2013-07-04 14:21:00,83.2,74.8,29.84,ESE,120,0.9,2.3,76,0.00,CLR,SCT,0.00,WeatherDisplay:10.37,2013-07-04 18:21:00,
2013-07-04 14:26:00,83.1,74.7,29.83,ESE,103,0.7,2.0,76,0.00,CLR,SCT,0.00,WeatherDisplay:10.37,2013-07-04 18:26:00,
2013-07-04 14:31:00,83.7,74.9,29.83,SSE,161,0.8,3.0,75,0.00,CLR,SCT,0.00,WeatherDisplay:10.37,2013-07-04 18:31:00,
2013-07-04 14:36:00,83.4,74.2,29.83,SSE,165,0.7,1.1,74,0.00,CLR,SCT,0.00,WeatherDisplay:10.37,2013-07-04 18:36:00,
2013-07-04 14:41:00,82.9,74.6,29.83,South,190,1.5,2.3,76,0.00,CLR,SCT,0.00,WeatherDisplay:10.37,2013-07-04 18:41:00,
2013-07-04 14:46:00,82.9,74.9,29.83,South,175,0.9,3.5,77,0.00,CLR,SCT,0.00,WeatherDisplay:10.37,2013-07-04 18:46:00,
2013-07-04 14:51:00,83.2,74.8,29.83,ESE,110,0.3,2.3,76,0.00,CLR,SCT,0.00,WeatherDisplay:10.37,2013-07-04 18:51:00,
2013-07-04 14:56:00,83.2,75.2,29.83,ESE,110,0.0,0.0,77,0.00,CLR,SCT,0.00,WeatherDisplay:10.37,2013-07-04 18:56:00,
2013-07-04 15:01:00,82.9,75.3,29.82,SE,146,0.0,2.3,78,0.00,CLR,SCT,0.00,WeatherDisplay:10.37,2013-07-04 19:01:00,
2013-07-04 15:06:00,83.1,75.5,29.83,ESE,104,0.1,1.1,78,0.00,CLR,SCT,0.00,WeatherDisplay:10.37,2013-07-04 19:06:00,
2013-07-04 15:11:00,83.3,74.9,29.82,ESE,106,0.1,1.1,76,0.00,CLR,SCT,0.00,WeatherDisplay:10.37,2013-07-04 19:11:00,
2013-07-04 15:16:00,82.8,74.8,29.82,SSW,198,0.0,0.0,77,0.00,CLR,SCT,0.00,WeatherDisplay:10.37,2013-07-04 19:16:00,
2013-07-04 15:21:00,83.0,75.4,29.82,West,268,0.0,1.1,78,0.00,CLR,SCT,0.00,WeatherDisplay:10.37,2013-07-04 19:21:00,
2013-07-04 15:26:00,83.6,75.6,29.82,South,172,0.0,1.1,77,0.00,CLR,SCT,0.00,WeatherDisplay:10.37,2013-07-04 19:26:00,
2013-07-04 15:31:00,83.7,74.9,29.82,SSE,153,0.0,0.0,75,0.00,CLR,SCT,0.00,WeatherDisplay:10.37,2013-07-04 19:31:00,
2013-07-04 15:36:00,83.5,74.7,29.82,NE,47,0.0,1.1,75,0.00,CLR,SCT,0.00,WeatherDisplay:10.37,2013-07-04 19:36:00,
2013-07-04 15:41:00,82.9,74.6,29.82,South,185,0.0,0.0,76,0.00,CLR,SCT,0.00,WeatherDisplay:10.37,2013-07-04 19:41:00,
2013-07-04 15:46:00,82.9,74.9,29.82,SE,145,0.4,1.1,77,0.00,CLR,SCT,0.00,WeatherDisplay:10.37,2013-07-04 19:46:00,
2013-07-04 15:51:00,83.2,75.2,29.81,SSE,154,0.0,1.1,77,0.00,CLR,SCT,0.00,WeatherDisplay:10.37,2013-07-04 19:51:00,
2013-07-04 15:56:00,83.2,74.8,29.81,East,101,0.3,2.3,76,0.00,CLR,SCT,0.00,WeatherDisplay:10.37,2013-07-04 19:56:00,
2013-07-04 16:01:00,83.5,74.3,29.81,SSE,161,0.5,2.3,74,0.00,CLR,SCT,0.00,WeatherDisplay:10.37,2013-07-04 20:01:00,
2013-07-04 16:06:00,83.6,74.0,29.81,SSE,163,0.0,0.0,73,0.00,CLR,SCT,0.00,WeatherDisplay:10.37,2013-07-04 20:06:00,
2013-07-04 16:11:00,83.6,74.4,29.81,ENE,65,0.0,0.0,74,0.00,CLR,SCT,0.00,WeatherDisplay:10.37,2013-07-04 20:11:00,
2013-07-04 16:16:00,83.6,74.0,29.80,SSE,147,0.0,1.1,73,0.00,CLR,SCT,0.00,WeatherDisplay:10.37,2013-07-04 20:16:00,
2013-07-04 16:21:00,83.5,74.7,29.80,ESE,102,0.2,2.3,75,0.00,CLR,SCT,0.00,WeatherDisplay:10.37,2013-07-04 20:21:00,
2013-07-04 16:26:00,83.5,73.9,29.80,SSE,159,0.0,1.1,73,0.00,CLR,SCT,0.00,WeatherDisplay:10.37,2013-07-04 20:26:00,
2013-07-04 16:31:00,83.5,73.5,29.80,South,171,0.2,1.1,72,0.00,CLR,SCT,0.00,WeatherDisplay:10.37,2013-07-04 20:31:00,
2013-07-04 16:36:00,83.5,73.5,29.80,SSE,151,0.1,1.1,72,0.00,CLR,SCT,0.00,WeatherDisplay:10.37,2013-07-04 20:36:00,
2013-07-04 16:41:00,83.7,73.3,29.80,ESE,118,0.0,0.0,71,0.00,CLR,SCT,0.00,WeatherDisplay:10.37,2013-07-04 20:41:00,
2013-07-04 16:46:00,83.6,74.0,29.80,South,184,0.3,1.1,73,0.00,CLR,SCT,0.00,WeatherDisplay:10.37,2013-07-04 20:46:00,
2013-07-04 16:51:00,83.5,73.1,29.79,ENE,59,0.0,1.1,71,0.00,CLR,SCT,0.00,WeatherDisplay:10.37,2013-07-04 20:51:00,
2013-07-04 16:56:00,83.4,73.8,29.79,ENE,59,0.3,0.0,73,0.00,CLR,SCT,0.00,WeatherDisplay:10.37,2013-07-04 20:56:00,
2013-07-04 17:01:00,83.3,73.3,29.79,South,182,0.2,2.3,72,0.00,CLR,SCT,0.00,WeatherDisplay:10.37,2013-07-04 21:01:00,
2013-07-04 17:06:00,83.2,73.2,29.79,ENE,77,0.0,0.0,72,0.00,CLR,SCT,0.00,WeatherDisplay:10.37,2013-07-04 21:06:00,
2013-07-04 17:11:00,83.2,74.0,29.79,SSE,157,0.0,0.0,74,0.00,CLR,SCT,0.00,WeatherDisplay:10.37,2013-07-04 21:11:00,
2013-07-04 17:16:00,83.1,73.5,29.79,South,186,0.0,0.0,73,0.00,CLR,SCT,0.00,WeatherDisplay:10.37,2013-07-04 21:16:00,
2013-07-04 17:21:00,83.0,73.9,29.79,South,189,0.0,0.0,74,0.00,CLR,SCT,0.00,WeatherDisplay:10.37,2013-07-04 21:21:00,
2013-07-04 17:26:00,82.8,73.7,29.79,South,171,0.1,0.0,74,0.00,CLR,SCT,0.00,WeatherDisplay:10.37,2013-07-04 21:26:00,
2013-07-04 17:31:00,82.8,73.3,29.79,SSE,152,0.0,0.0,73,0.00,CLR,SCT,0.00,WeatherDisplay:10.37,2013-07-04 21:31:00,
2013-07-04 17:36:00,82.7,73.2,29.79,SSW,203,0.1,0.0,73,0.00,CLR,SCT,0.00,WeatherDisplay:10.37,2013-07-04 21:36:00,
2013-07-04 17:41:00,82.6,73.1,29.79,SSW,203,0.0,0.0,73,0.00,CLR,SCT,0.00,WeatherDisplay:10.37,2013-07-04 21:41:00,
2013-07-04 17:46:00,82.5,73.4,29.79,South,187,0.0,0.0,74,0.00,CLR,SCT,0.00,WeatherDisplay:10.37,2013-07-04 21:46:00,
2013-07-04 17:51:00,82.5,73.8,29.79,SSE,147,0.0,0.0,75,0.00,CLR,SCT,0.00,WeatherDisplay:10.37,2013-07-04 21:51:00,
2013-07-04 17:56:00,82.4,73.7,29.79,South,189,0.0,2.3,75,0.00,CLR,SCT,0.00,WeatherDisplay:10.37,2013-07-04 21:56:00,
2013-07-04 18:01:00,82.3,73.6,29.79,NE,54,0.0,0.0,75,0.00,CLR,SCT,0.00,WeatherDisplay:10.37,2013-07-04 22:01:00,
2013-07-04 18:06:00,82.3,73.6,29.79,South,174,0.0,0.0,75,0.00,CLR,SCT,0.00,WeatherDisplay:10.37,2013-07-04 22:06:00,
2013-07-04 18:11:00,82.2,73.5,29.79,NE,46,0.0,0.0,75,0.00,CLR,SCT,0.00,WeatherDisplay:10.37,2013-07-04 22:11:00,
2013-07-04 18:16:00,82.3,74.0,29.79,South,182,0.0,0.0,76,0.00,CLR,SCT,0.00,WeatherDisplay:10.37,2013-07-04 22:16:00,
2013-07-04 18:21:00,82.1,73.4,29.79,ESE,113,0.0,0.0,75,0.00,CLR,SCT,0.00,WeatherDisplay:10.37,2013-07-04 22:21:00,
2013-07-04 18:26:00,82.0,73.3,29.79,East,95,0.0,0.0,75,0.00,CLR,SCT,0.00,WeatherDisplay:10.37,2013-07-04 22:26:00,
2013-07-04 18:31:00,81.9,73.2,29.79,SE,142,0.0,0.0,75,0.00,CLR,SCT,0.00,WeatherDisplay:10.37,2013-07-04 22:31:00,
2013-07-04 18:36:00,81.9,73.6,29.79,East,92,0.0,0.0,76,0.00,CLR,SCT,0.00,WeatherDisplay:10.37,2013-07-04 22:36:00,
2013-07-04 18:41:00,81.8,73.5,29.79,East,92,0.0,0.0,76,0.00,CLR,SCT,0.00,WeatherDisplay:10.37,2013-07-04 22:41:00,
2013-07-04 18:46:00,81.8,73.5,29.79,East,98,0.0,0.0,76,0.00,CLR,SCT,0.00,WeatherDisplay:10.37,2013-07-04 22:46:00,
2013-07-04 18:51:00,81.8,73.5,29.79,ENE,67,0.0,0.0,76,0.00,CLR,SCT,0.00,WeatherDisplay:10.37,2013-07-04 22:51:00,
2013-07-04 18:56:00,81.9,73.6,29.79,North,5,0.4,2.0,76,0.00,CLR,SCT,0.00,WeatherDisplay:10.37,2013-07-04 22:56:00,
2013-07-04 19:01:00,81.8,73.9,29.79,SE,140,0.0,0.0,77,0.00,CLR,SCT,0.00,WeatherDisplay:10.37,2013-07-04 23:01:00,
2013-07-04 19:06:00,81.7,73.8,29.79,ESE,119,0.0,0.0,77,0.00,CLR,SCT,0.00,WeatherDisplay:10.37,2013-07-04 23:06:00,
2013-07-04 19:11:00,81.6,73.7,29.79,SSE,148,0.0,0.0,77,0.00,CLR,SCT,0.00,WeatherDisplay:10.37,2013-07-04 23:11:00,
2013-07-04 19:16:00,81.5,74.0,29.79,SSE,148,0.0,0.0,78,0.00,CLR,SCT,0.00,WeatherDisplay:10.37,2013-07-04 23:16:00,
2013-07-04 19:21:00,81.3,73.8,29.79,SSE,148,0.0,0.0,78,0.00,CLR,SCT,0.00,WeatherDisplay:10.37,2013-07-04 23:21:00,
2013-07-04 19:26:00,81.1,74.0,29.79,SSE,148,0.0,0.0,79,0.00,CLR,SCT,0.00,WeatherDisplay:10.37,2013-07-04 23:26:00,
2013-07-04 19:31:00,81.0,74.2,29.80,SSE,148,0.0,0.0,80,0.00,CLR,SCT,0.00,WeatherDisplay:10.37,2013-07-04 23:31:00,
2013-07-04 19:36:00,80.7,74.0,29.80,SSE,147,0.0,0.0,80,0.00,CLR,SCT,0.00,WeatherDisplay:10.37,2013-07-04 23:36:00,
2013-07-04 19:41:00,80.4,74.4,29.80,SSE,147,0.0,0.0,82,0.00,CLR,SCT,0.00,WeatherDisplay:10.37,2013-07-04 23:41:00,
2013-07-04 19:46:00,80.1,74.5,29.80,SSE,147,0.0,0.0,83,0.00,CLR,SCT,0.00,WeatherDisplay:10.37,2013-07-04 23:46:00,
2013-07-04 19:51:00,79.9,74.6,29.80,SSE,147,0.0,0.0,84,0.00,CLR,SCT,0.00,WeatherDisplay:10.37,2013-07-04 23:51:00,
2013-07-04 19:56:00,79.8,74.9,29.79,SSE,147,0.0,0.0,85,0.00,CLR,SCT,0.00,WeatherDisplay:10.37,2013-07-04 23:56:00,
2013-07-04 20:01:00,79.6,75.0,29.80,SSE,147,0.0,0.0,86,0.00,CLR,SCT,0.00,WeatherDisplay:10.37,2013-07-05 00:01:00,
2013-07-04 20:06:00,79.3,75.1,29.79,SSE,147,0.0,0.0,87,0.00,CLR,SCT,0.00,WeatherDisplay:10.37,2013-07-05 00:06:00,
2013-07-04 20:11:00,79.0,74.8,29.80,SSE,147,0.0,0.0,87,0.00,CLR,SCT,0.00,WeatherDisplay:10.37,2013-07-05 00:11:00,
2013-07-04 20:16:00,78.8,74.6,29.80,SSE,147,0.0,0.0,87,0.00,CLR,SCT,0.00,WeatherDisplay:10.37,2013-07-05 00:16:00,
2013-07-04 20:21:00,78.6,73.7,29.80,SSE,147,0.0,0.0,85,0.00,CLR,SCT,0.00,WeatherDisplay:10.37,2013-07-05 00:21:00,
2013-07-04 20:26:00,78.5,74.3,29.80,SE,138,0.0,0.0,87,0.00,CLR,SCT,0.00,WeatherDisplay:10.37,2013-07-05 00:26:00,
2013-07-04 20:31:00,78.2,74.0,29.80,SE,138,0.0,0.0,87,0.00,CLR,SCT,0.00,WeatherDisplay:10.37,2013-07-05 00:31:00,
2013-07-04 20:36:00,78.1,73.9,29.80,SE,142,0.0,1.1,87,0.00,CLR,SCT,0.00,WeatherDisplay:10.37,2013-07-05 00:36:00,
2013-07-04 20:41:00,77.9,73.4,29.80,SE,140,0.0,1.1,86,0.00,CLR,SCT,0.00,WeatherDisplay:10.37,2013-07-05 00:41:00,
2013-07-04 20:46:00,77.8,73.3,29.80,SE,140,0.0,0.0,86,0.00,CLR,SCT,0.00,WeatherDisplay:10.37,2013-07-05 00:46:00,
2013-07-04 20:51:00,77.6,73.4,29.81,SE,140,0.0,0.0,87,0.00,CLR,SCT,0.00,WeatherDisplay:10.37,2013-07-05 00:51:00,
2013-07-04 20:56:00,77.6,73.1,29.81,SE,140,0.0,0.0,86,0.00,CLR,SCT,0.00,WeatherDisplay:10.37,2013-07-05 00:56:00,
2013-07-04 21:01:00,77.6,73.4,29.81,SE,140,0.0,1.1,87,0.00,CLR,SCT,0.00,WeatherDisplay:10.37,2013-07-05 01:01:00,
2013-07-04 21:06:00,77.6,73.4,29.81,East,91,0.0,1.1,87,0.00,CLR,SCT,0.00,WeatherDisplay:10.37,2013-07-05 01:06:00,
2013-07-04 21:11:00,77.8,73.6,29.81,ESE,104,0.1,0.0,87,0.00,CLR,SCT,0.00,WeatherDisplay:10.37,2013-07-05 01:11:00,
2013-07-04 21:16:00,77.8,73.6,29.81,ESE,104,0.0,0.0,87,0.00,CLR,SCT,0.00,WeatherDisplay:10.37,2013-07-05 01:16:00,
2013-07-04 21:21:00,77.7,73.5,29.82,ESE,104,0.0,0.0,87,0.00,CLR,SCT,0.00,WeatherDisplay:10.37,2013-07-05 01:21:00,
2013-07-04 21:26:00,77.6,73.4,29.82,ESE,104,0.3,1.1,87,0.00,CLR,SCT,0.00,WeatherDisplay:10.37,2013-07-05 01:26:00,
2013-07-04 21:31:00,77.5,73.3,29.82,ESE,105,0.2,1.1,87,0.00,CLR,SCT,0.00,WeatherDisplay:10.37,2013-07-05 01:31:00,
2013-07-04 21:36:00,77.4,73.2,29.82,ESE,105,0.3,1.1,87,0.00,CLR,SCT,0.00,WeatherDisplay:10.37,2013-07-05 01:36:00,
2013-07-04 21:41:00,77.2,73.4,29.82,South,180,0.5,2.3,88,0.00,CLR,SCT,0.00,WeatherDisplay:10.37,2013-07-05 01:41:00,
2013-07-04 21:46:00,77.1,73.3,29.82,South,180,0.0,0.0,88,0.00,CLR,SCT,0.00,WeatherDisplay:10.37,2013-07-05 01:46:00,
2013-07-04 21:51:00,77.0,73.2,29.82,South,180,0.2,0.0,88,0.00,CLR,SCT,0.00,WeatherDisplay:10.37,2013-07-05 01:51:00,
2013-07-04 21:56:00,76.9,72.7,29.82,South,180,0.0,0.0,87,0.00,CLR,SCT,0.00,WeatherDisplay:10.37,2013-07-05 01:56:00,
2013-07-04 22:01:00,76.9,72.7,29.82,South,178,0.0,1.1,87,0.00,CLR,SCT,0.00,WeatherDisplay:10.37,2013-07-05 02:01:00,
2013-07-04 22:06:00,76.8,72.6,29.82,South,177,0.0,1.1,87,0.00,CLR,SCT,0.00,WeatherDisplay:10.37,2013-07-05 02:06:00,
2013-07-04 22:11:00,76.8,72.6,29.82,South,177,0.0,1.1,87,0.00,CLR,SCT,0.00,WeatherDisplay:10.37,2013-07-05 02:11:00,
2013-07-04 22:16:00,76.6,72.4,29.82,South,177,0.0,0.0,87,0.00,CLR,SCT,0.00,WeatherDisplay:10.37,2013-07-05 02:16:00,
2013-07-04 22:21:00,76.3,72.5,29.82,South,177,0.0,0.0,88,0.00,CLR,SCT,0.00,WeatherDisplay:10.37,2013-07-05 02:21:00,
2013-07-04 22:26:00,76.1,72.3,29.82,South,177,0.0,0.0,88,0.00,CLR,SCT,0.00,WeatherDisplay:10.37,2013-07-05 02:26:00,
2013-07-04 22:31:00,76.0,72.2,29.82,South,177,0.0,0.0,88,0.00,CLR,SCT,0.00,WeatherDisplay:10.37,2013-07-05 02:31:00,
2013-07-04 22:36:00,75.8,72.0,29.82,South,177,0.0,0.0,88,0.00,CLR,SCT,0.00,WeatherDisplay:10.37,2013-07-05 02:36:00,
2013-07-04 22:41:00,75.8,72.3,29.82,South,177,0.2,0.0,89,0.00,CLR,SCT,0.00,WeatherDisplay:10.37,2013-07-05 02:41:00,
2013-07-04 22:46:00,75.6,72.1,29.82,SSE,158,0.1,1.1,89,0.00,CLR,SCT,0.00,WeatherDisplay:10.37,2013-07-05 02:46:00,
2013-07-04 22:51:00,75.5,72.0,29.82,South,169,0.7,2.3,89,0.00,CLR,SCT,0.00,WeatherDisplay:10.37,2013-07-05 02:51:00,
2013-07-04 22:56:00,75.4,71.9,29.82,SE,146,0.0,1.1,89,0.00,CLR,SCT,0.00,WeatherDisplay:10.37,2013-07-05 02:56:00,
2013-07-04 23:01:00,75.4,71.9,29.83,ESE,105,0.4,1.1,89,0.00,CLR,SCT,0.00,WeatherDisplay:10.37,2013-07-05 03:01:00,
2013-07-04 23:06:00,75.3,72.2,29.83,SE,138,0.2,1.1,90,0.00,CLR,SCT,0.00,WeatherDisplay:10.37,2013-07-05 03:06:00,
2013-07-04 23:11:00,75.3,72.2,29.83,SE,138,0.0,0.0,90,0.00,CLR,SCT,0.00,WeatherDisplay:10.37,2013-07-05 03:11:00,
2013-07-04 23:16:00,75.2,72.1,29.83,SE,138,0.3,1.1,90,0.00,CLR,SCT,0.00,WeatherDisplay:10.37,2013-07-05 03:16:00,
2013-07-04 23:21:00,75.2,72.1,29.83,SE,137,0.0,1.0,90,0.00,CLR,SCT,0.00,WeatherDisplay:10.37,2013-07-05 03:21:00,
2013-07-04 23:26:00,75.1,72.0,29.83,ESE,102,0.0,2.3,90,0.00,CLR,SCT,0.00,WeatherDisplay:10.37,2013-07-05 03:26:00,
2013-07-04 23:31:00,75.1,72.0,29.84,ESE,102,0.0,0.0,90,0.00,CLR,SCT,0.00,WeatherDisplay:10.37,2013-07-05 03:31:00,
2013-07-04 23:36:00,75.2,72.1,29.83,ESE,102,0.1,1.1,90,0.00,CLR,SCT,0.00,WeatherDisplay:10.37,2013-07-05 03:36:00,
2013-07-04 23:41:00,75.2,72.1,29.84,ESE,102,0.0,1.1,90,0.00,CLR,SCT,0.00,WeatherDisplay:10.37,2013-07-05 03:41:00,
2013-07-04 23:46:00,75.2,71.7,29.84,ESE,116,0.0,1.1,89,0.00,CLR,SCT,0.00,WeatherDisplay:10.37,2013-07-05 03:46:00,
2013-07-04 23:51:00,75.3,71.8,29.84,East,81,0.6,0.0,89,0.00,CLR,SCT,0.00,WeatherDisplay:10.37,2013-07-05 03:51:00,
2013-07-04 23:56:00,75.3,71.8,29.83,East,81,0.0,0.0,89,0.00,CLR,SCT,0.00,WeatherDisplay:10.37,2013-07-05 03:56:00,